Date,Time[GMT],Depth[m],Alt[m],T90[oC],Turb[FTU],Sal[psu]
21-Jun-2004,16:57:05,1211.6,0.0,4.4218,0.0180,4.6020
21-Jun-2004,16:57:06,1212.8,0.0,4.4217,0.0150,4.6019
21-Jun-2004,16:57:07,1212.2,0.0,4.4221,0.0210,4.5180
21-Jun-2004,16:57:08,1211.6,0.0,4.4223,0.0210,4.5180
21-Jun-2004,16:57:09,1211.6,0.0,4.4221,0.0180,4.5181
21-Jun-2004,16:57:10,1211.6,0.0,4.4222,0.0240,4.5180
21-Jun-2004,16:57:11,1211.6,0.0,4.4227,0.0250,4.6012
21-Jun-2004,16:57:12,1212.2,0.0,4.4224,0.0250,4.5179
21-Jun-2004,16:57:13,1211.6,0.0,4.4224,0.0240,4.5180
21-Jun-2004,16:57:14,1211.6,0.0,4.4227,0.0180,4.5179
21-Jun-2004,16:57:15,1211.6,0.0,4.4227,0.0250,4.6012
21-Jun-2004,16:57:16,1211.6,0.0,4.4224,0.0180,4.6019
21-Jun-2004,16:57:17,1211.6,0.0,4.4223,0.0240,4.4347
21-Jun-2004,16:57:18,1211.6,0.0,4.4223,0.0180,4.5180
21-Jun-2004,16:57:19,1211.0,0.0,4.4225,0.0180,4.6020
21-Jun-2004,16:57:20,1211.0,0.0,4.4225,0.0240,4.5180
21-Jun-2004,16:57:21,1211.0,0.0,4.4226,0.0210,4.5180
21-Jun-2004,16:57:22,1210.4,0.0,4.4227,0.0240,4.4348
21-Jun-2004,16:57:23,1210.4,0.0,4.4229,0.0180,4.6020
21-Jun-2004,16:57:24,1211.0,0.0,4.4232,0.0210,4.6012
21-Jun-2004,16:57:25,1210.4,0.0,4.4229,0.0340,4.4347
21-Jun-2004,16:57:26,1210.4,0.0,4.4231,0.0210,4.6020
21-Jun-2004,16:57:27,1210.4,0.0,4.4238,0.0210,4.6011
21-Jun-2004,16:57:28,1210.4,0.0,4.4238,0.0210,4.4346
21-Jun-2004,16:57:29,1210.4,0.0,4.4234,0.0180,4.6019
21-Jun-2004,16:57:30,1209.7,0.0,4.4237,0.0300,4.6019
21-Jun-2004,16:57:31,1209.1,0.0,4.4242,0.0210,4.4346
21-Jun-2004,16:57:32,1210.4,0.0,4.4249,0.0210,4.6017
21-Jun-2004,16:57:33,1209.1,0.0,4.4249,0.0420,4.5178
21-Jun-2004,16:57:34,1209.1,0.0,4.4249,0.0180,4.6018
21-Jun-2004,16:57:35,1209.1,0.0,4.4247,0.0180,4.5178
21-Jun-2004,16:57:36,1209.7,0.0,4.4249,0.0180,4.5178
21-Jun-2004,16:57:37,1209.7,0.0,4.4249,0.0180,4.6850
21-Jun-2004,16:57:38,1209.1,0.0,4.4250,0.0180,4.4345
21-Jun-2004,16:57:39,1210.4,0.0,4.4251,0.0180,4.6849
21-Jun-2004,16:57:40,1210.4,0.0,4.4252,0.0210,4.4344
21-Jun-2004,16:57:41,1209.1,73.8,4.4255,0.0180,4.4345
21-Jun-2004,16:57:42,1209.7,100.4,4.4255,0.0240,4.6849
21-Jun-2004,16:57:43,1209.1,100.4,4.4254,0.0180,4.5177
21-Jun-2004,16:57:44,1209.7,100.4,4.4254,0.0210,4.5177
21-Jun-2004,16:57:45,1209.1,100.4,4.4254,0.0180,4.6850
21-Jun-2004,16:57:46,1209.1,100.4,4.4254,0.0180,4.4345
21-Jun-2004,16:57:47,1209.1,100.4,4.4255,0.0240,4.5177
21-Jun-2004,16:57:48,1208.5,100.4,4.4256,0.0280,4.6850
21-Jun-2004,16:57:49,1208.5,100.4,4.4256,0.0270,4.4345
21-Jun-2004,16:57:50,1209.1,100.4,4.4259,0.0180,4.6017
21-Jun-2004,16:57:51,1208.5,100.4,4.4259,0.0210,4.6849
21-Jun-2004,16:57:52,1207.9,100.4,4.4255,0.0210,4.4346
21-Jun-2004,16:57:53,1207.9,100.4,4.4257,0.0240,4.5178
21-Jun-2004,16:57:54,1207.9,100.4,4.4259,0.0150,4.6850
21-Jun-2004,16:57:55,1207.9,100.4,4.4257,0.0210,4.4345
21-Jun-2004,16:57:56,1207.9,100.4,4.4259,0.0180,4.5177
21-Jun-2004,16:57:57,1207.9,100.4,4.4256,0.0210,4.6851
21-Jun-2004,16:57:58,1207.3,100.4,4.4255,0.0210,4.4346
21-Jun-2004,16:57:59,1207.9,100.4,4.4257,0.0180,4.4345
21-Jun-2004,16:58:00,1207.9,100.4,4.4259,0.0240,4.7690
21-Jun-2004,16:58:01,1207.9,100.4,4.4259,0.0210,4.4345
21-Jun-2004,16:58:02,1207.9,100.4,4.4259,0.0180,4.4345
21-Jun-2004,16:58:03,1207.3,100.4,4.4257,0.0210,4.7690
21-Jun-2004,16:58:04,1206.7,100.4,4.4259,0.0210,4.4346
21-Jun-2004,16:58:05,1207.3,100.4,4.4260,0.0210,4.4345
21-Jun-2004,16:58:06,1206.7,100.4,4.4259,0.0180,4.6018
21-Jun-2004,16:58:07,1207.3,100.4,4.4260,0.0210,4.6018
21-Jun-2004,16:58:08,1207.3,100.4,4.4259,0.0240,4.4345
21-Jun-2004,16:58:09,1206.7,100.4,4.4261,0.0180,4.5178
21-Jun-2004,16:58:10,1206.7,100.4,4.4261,0.0180,4.6851
21-Jun-2004,16:58:11,1206.7,100.4,4.4262,0.0280,4.4346
21-Jun-2004,16:58:12,1206.7,100.4,4.4261,0.0300,4.4346
21-Jun-2004,16:58:13,1206.7,100.4,4.4261,0.0210,4.6018
21-Jun-2004,16:58:14,1207.3,100.4,4.4261,0.0180,4.6018
21-Jun-2004,16:58:15,1206.7,100.4,4.4260,0.0210,4.4346
21-Jun-2004,16:58:16,1206.7,100.4,4.4261,0.0150,4.4346
21-Jun-2004,16:58:17,1206.7,100.4,4.4262,0.0180,4.7690
21-Jun-2004,16:58:18,1206.7,100.4,4.4263,0.0210,4.5178
21-Jun-2004,16:58:19,1206.7,100.4,4.4265,0.0180,4.4345
21-Jun-2004,16:58:20,1206.7,100.4,4.4258,0.0150,4.5179
21-Jun-2004,16:58:21,1207.9,100.4,4.4257,0.0370,4.6851
21-Jun-2004,16:58:22,1206.7,100.4,4.4260,0.1250,4.4346
21-Jun-2004,16:58:23,1206.7,100.4,4.4261,0.0250,4.4346
21-Jun-2004,16:58:24,1206.7,100.4,4.4260,0.0370,4.7690
21-Jun-2004,16:58:25,1206.7,100.4,4.4265,0.0700,4.5178
21-Jun-2004,16:58:26,1206.1,100.4,4.4264,0.0210,4.4346
21-Jun-2004,16:58:27,1205.5,100.4,4.4261,0.0210,4.4347
21-Jun-2004,16:58:28,1206.1,100.4,4.4262,0.0210,4.6851
21-Jun-2004,16:58:29,1206.7,100.4,4.4257,0.0180,4.6018
21-Jun-2004,16:58:30,1206.7,100.4,4.4261,0.0210,4.4346
21-Jun-2004,16:58:31,1206.7,100.4,4.4264,0.0680,4.5178
21-Jun-2004,16:58:32,1206.7,100.4,4.4264,0.0300,4.7690
21-Jun-2004,16:58:33,1206.7,100.4,4.4261,0.0250,4.4345
21-Jun-2004,16:58:34,1206.7,100.4,4.4263,0.0210,4.4345
21-Jun-2004,16:58:35,1206.7,100.4,4.4263,0.0180,4.4345
21-Jun-2004,16:58:36,1206.1,100.4,4.4262,0.0210,4.7691
21-Jun-2004,16:58:37,1206.7,100.4,4.4261,0.0180,4.5178
21-Jun-2004,16:58:38,1206.7,100.4,4.4262,0.0180,4.4345
21-Jun-2004,16:58:39,1206.7,100.4,4.4262,0.0210,4.6018
21-Jun-2004,16:58:40,1206.7,100.4,4.4262,0.0180,4.6851
21-Jun-2004,16:58:41,1206.1,100.4,4.4260,0.0180,4.4346
21-Jun-2004,16:58:42,1206.7,100.4,4.4262,0.0180,4.4345
21-Jun-2004,16:58:43,1206.7,100.4,4.4262,0.0180,4.6851
21-Jun-2004,16:58:44,1206.7,100.4,4.4261,0.0240,4.6018
21-Jun-2004,16:58:45,1205.5,100.4,4.4263,0.0180,4.4346
21-Jun-2004,16:58:46,1206.7,100.4,4.4261,0.0150,4.4346
21-Jun-2004,16:58:47,1206.1,100.4,4.4263,0.0180,4.7690
21-Jun-2004,16:58:48,1206.7,100.4,4.4265,0.0240,4.6017
21-Jun-2004,16:58:49,1206.7,76.2,4.4265,0.0210,4.4345
21-Jun-2004,16:58:50,1206.7,3.7,4.4266,0.0250,4.4345
21-Jun-2004,16:58:51,1206.7,3.7,4.4269,0.0210,4.4345
21-Jun-2004,16:58:52,1206.7,3.8,4.4267,0.0180,4.7690
21-Jun-2004,16:58:53,1206.7,3.9,4.4267,0.0210,4.6850
21-Jun-2004,16:58:54,1206.1,4.0,4.4261,0.0400,4.4346
21-Jun-2004,16:58:55,1205.5,4.1,4.4261,0.0180,4.4347
21-Jun-2004,16:58:56,1206.1,39.5,4.4263,0.0210,4.6851
21-Jun-2004,16:58:57,1206.1,16.4,4.4262,0.0210,4.6019
21-Jun-2004,16:58:58,1205.5,4.4,4.4262,0.0210,4.4346
21-Jun-2004,16:58:59,1205.5,4.5,4.4264,0.0300,4.4346
21-Jun-2004,16:59:00,1205.5,4.5,4.4265,0.0240,4.6851
21-Jun-2004,16:59:01,1205.5,4.7,4.4264,0.0180,4.6852
21-Jun-2004,16:59:02,1205.5,4.8,4.4264,0.0180,4.4346
21-Jun-2004,16:59:03,1205.5,4.8,4.4265,0.0180,4.4346
21-Jun-2004,16:59:04,1206.7,5.0,4.4264,0.0300,4.6851
21-Jun-2004,16:59:05,1205.5,5.0,4.4264,0.0270,4.6851
21-Jun-2004,16:59:06,1205.5,5.1,4.4264,0.0180,4.4346
21-Jun-2004,16:59:07,1205.5,5.2,4.4265,0.0270,4.4346
21-Jun-2004,16:59:08,1206.1,5.3,4.4265,0.0180,4.5178
21-Jun-2004,16:59:09,1205.5,5.4,4.4267,0.0180,4.7690
21-Jun-2004,16:59:10,1205.5,5.5,4.4265,0.0120,4.6018
21-Jun-2004,16:59:11,1205.5,5.6,4.4266,0.0150,4.4346
21-Jun-2004,16:59:12,1205.5,5.7,4.4262,0.0180,4.4346
21-Jun-2004,16:59:13,1205.5,5.8,4.4265,0.0180,4.6851
21-Jun-2004,16:59:14,1205.5,5.9,4.4264,0.0210,4.6851
21-Jun-2004,16:59:15,1205.5,6.0,4.4268,0.0210,4.4346
21-Jun-2004,16:59:16,1205.5,6.1,4.4265,0.0450,4.4346
21-Jun-2004,16:59:17,1205.5,6.2,4.4265,0.0120,4.4346
21-Jun-2004,16:59:18,1205.5,6.3,4.4264,0.0180,4.6851
21-Jun-2004,16:59:19,1205.5,6.4,4.4264,0.0180,4.6018
21-Jun-2004,16:59:20,1205.5,6.5,4.4263,0.0150,4.4346
21-Jun-2004,16:59:21,1205.5,6.5,4.4263,0.0280,4.4346
21-Jun-2004,16:59:22,1206.1,6.6,4.4264,0.0210,4.6851
21-Jun-2004,16:59:23,1205.5,6.6,4.4262,0.0180,4.6019
21-Jun-2004,16:59:24,1205.5,6.7,4.4263,0.0210,4.4346
21-Jun-2004,16:59:25,1205.5,6.9,4.4263,0.0240,4.4346
21-Jun-2004,16:59:26,1205.5,7.0,4.4263,0.0250,4.6018
21-Jun-2004,16:59:27,1205.5,7.0,4.4262,0.0430,4.6851
21-Jun-2004,16:59:28,1205.5,7.2,4.4260,0.0210,4.4347
21-Jun-2004,16:59:29,1205.5,7.3,4.4262,0.0210,4.4347
21-Jun-2004,16:59:30,1206.1,7.4,4.4260,0.0180,4.7691
21-Jun-2004,16:59:31,1206.1,7.5,4.4262,0.0180,4.5179
21-Jun-2004,16:59:32,1205.5,7.6,4.4263,0.0210,4.4346
21-Jun-2004,16:59:33,1205.5,7.7,4.4261,0.0180,4.4347
21-Jun-2004,16:59:34,1204.9,7.8,4.4259,0.0180,4.7691
21-Jun-2004,16:59:35,1204.3,7.9,4.4257,0.0180,4.4348
21-Jun-2004,16:59:36,1204.3,8.0,4.4259,0.0180,4.4348
21-Jun-2004,16:59:37,1204.3,8.1,4.4259,0.0180,4.7692
21-Jun-2004,16:59:38,1204.3,8.2,4.4257,0.0180,4.4348
21-Jun-2004,16:59:39,1204.3,8.3,4.4253,0.0210,4.4349
21-Jun-2004,16:59:40,1203.7,8.4,4.4254,0.0210,4.7694
21-Jun-2004,16:59:41,1203.7,8.5,4.4256,0.0210,4.4349
21-Jun-2004,16:59:42,1203.0,8.6,4.4255,0.0210,4.5182
21-Jun-2004,16:59:43,1202.4,8.7,4.4257,0.0490,4.6854
21-Jun-2004,16:59:44,1201.8,8.8,4.4258,0.0180,4.4350
21-Jun-2004,16:59:45,1201.8,8.8,4.4258,0.0180,4.4350
21-Jun-2004,16:59:46,1201.8,8.9,4.4257,0.0180,4.7695
21-Jun-2004,16:59:47,1201.8,9.1,4.4257,0.0210,4.4350
21-Jun-2004,16:59:48,1200.6,9.1,4.4256,0.0210,4.5183
21-Jun-2004,16:59:49,1200.6,9.3,4.4258,0.0180,4.6856
21-Jun-2004,16:59:50,1200.0,9.3,4.4261,0.0150,4.4351
21-Jun-2004,16:59:51,1199.4,9.4,4.4264,0.0210,4.4351
21-Jun-2004,16:59:52,1199.4,9.5,4.4268,0.0180,4.5183
21-Jun-2004,16:59:53,1199.4,9.6,4.4272,0.0210,4.7694
21-Jun-2004,16:59:54,1199.4,9.7,4.4268,0.0150,4.7695
21-Jun-2004,16:59:55,1199.4,9.8,4.4265,0.0210,4.4351
21-Jun-2004,16:59:56,1200.6,9.9,4.4266,0.0180,4.4349
21-Jun-2004,16:59:57,1200.0,10.0,4.4275,0.0250,4.4349
21-Jun-2004,16:59:58,1199.4,10.1,4.4271,0.0210,4.4350
21-Jun-2004,16:59:59,1199.4,10.2,4.4280,0.0240,4.4349
21-Jun-2004,17:00:00,1200.6,10.3,4.4277,0.0180,4.5181
21-Jun-2004,17:00:01,1200.6,10.4,4.4273,0.0180,4.7693
21-Jun-2004,17:00:02,1200.6,10.5,4.4277,0.0180,4.7692
21-Jun-2004,17:00:03,1201.2,10.6,4.4281,0.0210,4.7691
21-Jun-2004,17:00:04,1201.2,10.7,4.4276,0.0210,4.7692
21-Jun-2004,17:00:05,1201.8,10.8,4.4278,0.0210,4.7691
21-Jun-2004,17:00:06,1201.8,10.9,4.4273,0.0280,4.6852
21-Jun-2004,17:00:07,1201.8,11.0,4.4273,0.0180,4.4348
21-Jun-2004,17:00:08,1201.8,11.1,4.4270,0.0210,4.4348
21-Jun-2004,17:00:09,1201.8,11.2,4.4272,0.0180,4.4348
21-Jun-2004,17:00:10,1202.4,11.3,4.4272,0.0700,4.4348
21-Jun-2004,17:00:11,1203.0,11.3,4.4273,0.0490,4.4347
21-Jun-2004,17:00:12,1203.0,11.4,4.4270,0.0210,4.5180
21-Jun-2004,17:00:13,1203.0,11.6,4.4266,0.0240,4.7692
21-Jun-2004,17:00:14,1203.0,11.7,4.4266,0.0210,4.6020
21-Jun-2004,17:00:15,1203.7,11.7,4.4267,0.0180,4.4347
21-Jun-2004,17:00:16,1203.7,11.8,4.4270,0.0180,4.4346
21-Jun-2004,17:00:17,1204.3,11.9,4.4271,0.0210,4.4346
21-Jun-2004,17:00:18,1204.3,12.0,4.4267,0.0210,4.6852
21-Jun-2004,17:00:19,1204.9,12.1,4.4264,0.0180,4.6852
21-Jun-2004,17:00:20,1205.5,12.2,4.4264,0.0210,4.4346
21-Jun-2004,17:00:21,1205.5,12.3,4.4265,0.0240,4.4346
21-Jun-2004,17:00:22,1206.7,12.4,4.4264,0.0280,4.5178
21-Jun-2004,17:00:23,1206.7,12.5,4.4264,0.0180,4.7690
21-Jun-2004,17:00:24,1206.7,12.6,4.4266,0.0210,4.5178
21-Jun-2004,17:00:25,1206.7,12.7,4.4267,0.0180,4.4345
21-Jun-2004,17:00:26,1207.9,12.8,4.4269,0.0210,4.4344
21-Jun-2004,17:00:27,1207.3,12.9,4.4264,0.0180,4.5177
21-Jun-2004,17:00:28,1207.9,13.0,4.4259,0.0210,4.6850
21-Jun-2004,17:00:29,1207.9,13.1,4.4262,0.0210,4.4345
21-Jun-2004,17:00:30,1208.5,13.2,4.4259,0.0300,4.4345
21-Jun-2004,17:00:31,1209.1,13.3,4.4250,0.0210,4.6851
21-Jun-2004,17:00:32,1209.1,13.4,4.4252,0.0240,4.4345
21-Jun-2004,17:00:33,1209.7,13.4,4.4253,0.0180,4.6016
21-Jun-2004,17:00:34,1209.7,13.6,4.4253,0.0210,4.6017
21-Jun-2004,17:00:35,1210.4,13.7,4.4243,0.0210,4.4345
21-Jun-2004,17:00:36,1210.4,13.7,4.4240,0.0340,4.6018
21-Jun-2004,17:00:37,1211.6,13.8,4.4230,0.0270,4.6018
21-Jun-2004,17:00:38,1211.6,13.9,4.4229,0.0180,4.4346
21-Jun-2004,17:00:39,1211.6,14.0,4.4227,0.0210,4.6019
21-Jun-2004,17:00:40,1211.6,14.1,4.4237,0.0120,4.6010
21-Jun-2004,17:00:41,1212.8,14.2,4.4237,0.0210,4.4345
21-Jun-2004,17:00:42,1212.8,14.3,4.4221,0.0240,4.5179
21-Jun-2004,17:00:43,1212.8,14.4,4.4219,0.0240,4.6019
21-Jun-2004,17:00:44,1213.4,14.5,4.4217,0.0240,4.6012
21-Jun-2004,17:00:45,1214.0,14.6,4.4215,0.0250,4.6012
21-Jun-2004,17:00:46,1214.6,14.7,4.4217,0.0450,4.5178
21-Jun-2004,17:00:47,1215.2,14.8,4.4213,0.0270,4.5178
21-Jun-2004,17:00:48,1215.2,14.9,4.4212,0.0180,4.5178
21-Jun-2004,17:00:49,1215.2,15.0,4.4207,0.0210,4.5179
21-Jun-2004,17:00:50,1216.5,15.1,4.4205,0.0250,4.5178
21-Jun-2004,17:00:51,1216.5,15.2,4.4204,0.0280,4.5178
21-Jun-2004,17:00:52,1217.1,15.3,4.4208,0.0240,4.5178
21-Jun-2004,17:00:53,1217.1,15.4,4.4208,0.0370,4.5178
21-Jun-2004,17:00:54,1217.7,15.5,4.4203,0.0250,4.5177
21-Jun-2004,17:00:55,1217.7,15.6,4.4211,0.0150,4.5176
21-Jun-2004,17:00:56,1218.3,15.7,4.4203,0.0340,4.6010
21-Jun-2004,17:00:57,1218.9,15.8,4.4198,0.0210,4.6017
21-Jun-2004,17:00:58,1219.5,15.8,4.4200,0.0210,4.6849
21-Jun-2004,17:00:59,1220.1,15.9,4.4199,0.0180,4.6009
21-Jun-2004,17:01:00,1220.1,16.0,4.4196,0.0240,4.5177
21-Jun-2004,17:01:01,1220.1,16.1,4.4198,0.0210,4.5176
21-Jun-2004,17:01:02,1221.3,16.2,4.4196,0.0210,4.5176
21-Jun-2004,17:01:03,1221.3,16.3,4.4193,0.0250,4.5176
21-Jun-2004,17:01:04,1221.9,16.4,4.4189,0.0270,4.6009
21-Jun-2004,17:01:05,1222.5,16.4,4.4191,0.0180,4.5176
21-Jun-2004,17:01:06,1222.5,16.4,4.4197,0.0210,4.5175
21-Jun-2004,17:01:07,1222.5,16.3,4.4194,0.0250,4.5175
21-Jun-2004,17:01:08,1223.2,16.3,4.4188,0.0210,4.6008
21-Jun-2004,17:01:09,1223.8,16.7,4.4185,0.0310,4.5176
21-Jun-2004,17:01:10,1225.0,16.9,4.4184,0.0210,4.5175
21-Jun-2004,17:01:11,1225.0,17.1,4.4185,0.0210,4.6007
21-Jun-2004,17:01:12,1225.0,17.2,4.4184,0.0490,4.5175
21-Jun-2004,17:01:13,1226.2,17.3,4.4185,0.0240,4.5174
21-Jun-2004,17:01:14,1226.2,17.4,4.4186,0.0210,4.6006
21-Jun-2004,17:01:15,1227.4,17.4,4.4180,0.0240,4.5174
21-Jun-2004,17:01:16,1227.4,17.6,4.4180,0.0210,4.5174
21-Jun-2004,17:01:17,1227.4,17.6,4.4180,0.0340,4.6006
21-Jun-2004,17:01:18,1228.0,17.7,4.4180,0.0210,4.5173
21-Jun-2004,17:01:19,1228.6,17.8,4.4178,0.0210,4.6005
21-Jun-2004,17:01:20,1228.6,17.9,4.4179,0.0210,4.5173
21-Jun-2004,17:01:21,1229.9,18.0,4.4176,0.0280,4.5173
21-Jun-2004,17:01:22,1229.9,18.1,4.4170,0.0340,4.5173
21-Jun-2004,17:01:23,1230.5,18.1,4.4168,0.0430,4.6006
21-Jun-2004,17:01:24,1231.1,18.2,4.4166,0.0180,4.5173
21-Jun-2004,17:01:25,1231.1,18.3,4.4167,0.0180,4.6005
21-Jun-2004,17:01:26,1232.3,18.4,4.4174,0.0180,4.6003
21-Jun-2004,17:01:27,1232.3,18.5,4.4168,0.0180,4.5172
21-Jun-2004,17:01:28,1232.9,18.6,4.4156,0.0180,4.6005
21-Jun-2004,17:01:29,1233.5,18.7,4.4155,0.0340,4.5173
21-Jun-2004,17:01:30,1233.5,18.8,4.4165,0.0180,4.4339
21-Jun-2004,17:01:31,1234.1,18.9,4.4154,0.0280,4.6005
21-Jun-2004,17:01:32,1234.7,18.9,4.4144,0.0150,4.5173
21-Jun-2004,17:01:33,1235.3,19.1,4.4134,0.0210,4.6006
21-Jun-2004,17:01:34,1235.9,19.1,4.4128,0.0180,4.5174
21-Jun-2004,17:01:35,1235.9,19.2,4.4116,0.0150,4.4343
21-Jun-2004,17:01:36,1236.6,19.2,4.4111,0.0240,4.6848
21-Jun-2004,17:01:37,1237.2,19.3,4.4108,0.0210,4.4344
21-Jun-2004,17:01:38,1237.2,19.4,4.4105,0.0180,4.5176
21-Jun-2004,17:01:39,1237.2,19.5,4.4144,0.0180,4.6004
21-Jun-2004,17:01:40,1238.4,19.6,4.4155,0.0210,4.5168
21-Jun-2004,17:01:41,1237.8,19.7,4.4130,0.0180,4.6012
21-Jun-2004,17:01:42,1238.4,19.8,4.4137,0.0180,4.5172
21-Jun-2004,17:01:43,1238.4,19.9,4.4132,0.0180,4.5172
21-Jun-2004,17:01:44,1238.4,20.0,4.4123,0.0150,4.4341
21-Jun-2004,17:01:45,1238.4,20.0,4.4122,0.0180,4.6006
21-Jun-2004,17:01:46,1238.4,20.1,4.4114,0.0210,4.4342
21-Jun-2004,17:01:47,1238.4,20.2,4.4081,0.0150,4.5179
21-Jun-2004,17:01:48,1238.4,20.3,4.4074,0.0180,4.4347
21-Jun-2004,17:01:49,1238.4,20.4,4.4076,0.0210,4.6852
21-Jun-2004,17:01:50,1238.4,20.5,4.4081,0.0250,4.5179
21-Jun-2004,17:01:51,1239.0,20.6,4.4086,0.0210,4.4345
21-Jun-2004,17:01:52,1239.0,20.7,4.4085,0.0300,4.4345
21-Jun-2004,17:01:53,1239.6,20.7,4.4082,0.0210,4.4345
21-Jun-2004,17:01:54,1239.6,20.8,4.4079,0.0180,4.6010
21-Jun-2004,17:01:55,1239.6,20.9,4.4074,0.0150,4.6011
21-Jun-2004,17:01:56,1239.6,21.0,4.4074,0.0210,4.4346
21-Jun-2004,17:01:57,1239.6,21.1,4.4074,0.0180,4.6018
21-Jun-2004,17:01:58,1239.6,21.2,4.4073,0.0180,4.5178
21-Jun-2004,17:01:59,1240.8,21.3,4.4072,0.0300,4.5178
21-Jun-2004,17:02:00,1240.8,21.4,4.4063,0.0370,4.5179
21-Jun-2004,17:02:01,1240.8,21.5,4.4067,0.0150,4.5178
21-Jun-2004,17:02:02,1240.8,21.6,4.4067,0.0210,4.5178
21-Jun-2004,17:02:03,1242.0,21.6,4.4065,0.0120,4.5178
21-Jun-2004,17:02:04,1242.0,21.7,4.4067,0.0250,4.5177
21-Jun-2004,17:02:05,1242.0,21.8,4.4068,0.0180,4.5177
21-Jun-2004,17:02:06,1242.0,21.9,4.4065,0.0120,4.5178
21-Jun-2004,17:02:07,1242.6,22.0,4.4061,0.0120,4.6018
21-Jun-2004,17:02:08,1243.3,22.1,4.4051,0.0300,4.5179
21-Jun-2004,17:02:09,1243.3,22.2,4.4057,0.0120,4.5178
21-Jun-2004,17:02:10,1243.3,22.3,4.4054,0.0210,4.5179
21-Jun-2004,17:02:11,1244.5,22.4,4.4018,0.0180,4.5183
21-Jun-2004,17:02:12,1244.5,22.5,4.4002,0.0150,4.4352
21-Jun-2004,17:02:13,1244.5,22.6,4.4025,0.0180,4.6014
21-Jun-2004,17:02:14,1245.1,22.7,4.4038,0.0180,4.5180
21-Jun-2004,17:02:15,1245.7,22.8,4.4012,0.0150,4.6015
21-Jun-2004,17:02:16,1245.7,22.9,4.3979,0.0270,4.5187
21-Jun-2004,17:02:17,1245.7,22.9,4.3975,0.0370,4.4354
21-Jun-2004,17:02:18,1246.9,23.0,4.3966,0.0340,4.5188
21-Jun-2004,17:02:19,1246.9,23.1,4.3936,0.0180,4.6024
21-Jun-2004,17:02:20,1247.5,23.1,4.3958,0.0240,4.5189
21-Jun-2004,17:02:21,1246.9,23.1,4.3967,0.0150,4.5188
21-Jun-2004,17:02:22,1247.5,23.1,4.3907,0.0180,4.5195
21-Jun-2004,17:02:23,1248.1,23.1,4.3867,0.0250,4.5200
21-Jun-2004,17:02:24,1248.1,23.1,4.3894,0.0210,4.4363
21-Jun-2004,17:02:25,1248.1,23.1,4.3909,0.0150,4.5195
21-Jun-2004,17:02:26,1248.7,23.1,4.3861,0.0520,4.5200
21-Jun-2004,17:02:27,1249.3,23.1,4.3876,0.0340,4.6030
21-Jun-2004,17:02:28,1249.3,23.1,4.3874,0.0150,4.5198
21-Jun-2004,17:02:29,1249.3,23.1,4.3874,0.0150,4.5198
21-Jun-2004,17:02:30,1250.0,23.1,4.3875,0.0090,4.5198
21-Jun-2004,17:02:31,1250.6,23.1,4.3868,0.0120,4.5198
21-Jun-2004,17:02:32,1250.6,23.1,4.3842,0.0210,4.5202
21-Jun-2004,17:02:33,1250.6,23.1,4.3847,0.0120,4.5201
21-Jun-2004,17:02:34,1250.6,23.1,4.3833,0.0120,4.5202
21-Jun-2004,17:02:35,1251.8,23.1,4.3833,0.0180,4.5202
21-Jun-2004,17:02:36,1251.8,23.1,4.3824,0.0150,4.4370
21-Jun-2004,17:02:37,1251.8,23.1,4.3817,0.0120,4.5204
21-Jun-2004,17:02:38,1252.4,23.1,4.3826,0.0150,4.5202
21-Jun-2004,17:02:39,1252.4,23.1,4.3829,0.0180,4.6042
21-Jun-2004,17:02:40,1253.0,23.1,4.3819,0.0120,4.5202
21-Jun-2004,17:02:41,1253.6,23.1,4.3805,0.0150,4.4371
21-Jun-2004,17:02:42,1254.2,23.1,4.3821,0.0150,4.6041
21-Jun-2004,17:02:43,1253.6,23.1,4.3825,0.0120,4.6041
21-Jun-2004,17:02:44,1254.2,23.1,4.3816,0.0150,4.5202
21-Jun-2004,17:02:45,1254.8,23.1,4.3811,0.0300,4.4369
21-Jun-2004,17:02:46,1254.8,23.1,4.3802,0.0210,4.5204
21-Jun-2004,17:02:47,1255.4,23.1,4.3801,0.0150,4.4370
21-Jun-2004,17:02:48,1255.4,23.1,4.3809,0.0180,4.5202
21-Jun-2004,17:02:49,1255.4,23.1,4.3811,0.0150,4.6035
21-Jun-2004,17:02:50,1255.4,23.1,4.3810,0.0150,4.5202
21-Jun-2004,17:02:51,1255.4,23.1,4.3803,0.0150,4.4370
21-Jun-2004,17:02:52,1255.4,23.1,4.3789,0.0150,4.6045
21-Jun-2004,17:02:53,1255.4,23.1,4.3789,0.0180,4.4372
21-Jun-2004,17:02:54,1255.4,23.1,4.3789,0.0250,4.5205
21-Jun-2004,17:02:55,1255.4,23.1,4.3778,0.0210,4.4374
21-Jun-2004,17:02:56,1255.4,23.1,4.3779,0.0180,4.6040
21-Jun-2004,17:02:57,1255.4,23.1,4.3774,0.0430,4.4374
21-Jun-2004,17:02:58,1256.7,23.1,4.3766,0.0450,4.6894
21-Jun-2004,17:02:59,1256.7,23.1,4.3763,0.0450,4.4374
21-Jun-2004,17:03:00,1256.7,23.1,4.3766,0.0180,4.4374
21-Jun-2004,17:03:01,1257.3,23.1,4.3765,0.0180,4.6040
21-Jun-2004,17:03:02,1256.7,23.1,4.3758,0.0210,4.4375
21-Jun-2004,17:03:03,1257.3,23.1,4.3759,0.0370,4.4374
21-Jun-2004,17:03:04,1257.9,23.1,4.3766,0.0270,4.6046
21-Jun-2004,17:03:05,1257.9,23.1,4.3765,0.0210,4.4374
21-Jun-2004,17:03:06,1257.9,23.1,4.3762,0.0210,4.5206
21-Jun-2004,17:03:07,1259.1,23.1,4.3755,0.0120,4.6047
21-Jun-2004,17:03:08,1259.1,23.1,4.3753,0.0180,4.4374
21-Jun-2004,17:03:09,1259.1,23.1,4.3752,0.0210,4.4374
21-Jun-2004,17:03:10,1259.1,23.1,4.3754,0.0240,4.6880
21-Jun-2004,17:03:11,1259.1,23.1,4.3754,0.0210,4.4374
21-Jun-2004,17:03:12,1260.3,23.1,4.3740,0.0240,4.4375
21-Jun-2004,17:03:13,1260.3,23.1,4.3741,0.0210,4.4375
21-Jun-2004,17:03:14,1260.3,23.1,4.3746,0.0280,4.6880
21-Jun-2004,17:03:15,1260.9,23.1,4.3746,0.0180,4.4374
21-Jun-2004,17:03:16,1261.5,23.1,4.3743,0.0180,4.4374
21-Jun-2004,17:03:17,1261.5,23.1,4.3749,0.0180,4.4372
21-Jun-2004,17:03:18,1261.5,23.1,4.3750,0.0120,4.6892
21-Jun-2004,17:03:19,1262.7,23.1,4.3743,0.0400,4.4372
21-Jun-2004,17:03:20,1263.4,23.1,4.3743,0.0340,4.4372
21-Jun-2004,17:03:21,1262.7,23.1,4.3743,0.0180,4.4372
21-Jun-2004,17:03:22,1264.0,23.0,4.3748,0.0180,4.6044
21-Jun-2004,17:03:23,1264.0,22.7,4.3740,0.0180,4.6045
21-Jun-2004,17:03:24,1264.0,22.4,4.3741,0.0180,4.4372
21-Jun-2004,17:03:25,1265.2,22.1,4.3744,0.0180,4.4371
21-Jun-2004,17:03:26,1265.2,21.8,4.3738,0.0180,4.4371
21-Jun-2004,17:03:27,1265.2,21.4,4.3724,0.0180,4.4373
21-Jun-2004,17:03:28,1265.2,21.0,4.3724,0.0180,4.7748
21-Jun-2004,17:03:29,1266.4,20.9,4.3727,0.0120,4.7746
21-Jun-2004,17:03:30,1266.4,20.6,4.3709,0.0090,4.4375
21-Jun-2004,17:03:31,1266.4,20.0,4.3713,0.0120,4.7720
21-Jun-2004,17:03:32,1267.6,19.7,4.3729,0.0210,4.4371
21-Jun-2004,17:03:33,1267.6,19.3,4.3713,0.0210,4.4373
21-Jun-2004,17:03:34,1267.6,18.9,4.3683,0.0180,4.5210
21-Jun-2004,17:03:35,1268.2,18.5,4.3695,0.0180,4.6049
21-Jun-2004,17:03:36,1268.8,18.3,4.3673,0.0180,4.4377
21-Jun-2004,17:03:37,1268.8,17.8,4.3610,0.0120,4.5219
21-Jun-2004,17:03:38,1270.0,17.4,4.3627,0.0150,4.4382
21-Jun-2004,17:03:39,1270.0,17.0,4.3638,0.0150,4.5214
21-Jun-2004,17:03:40,1270.0,16.6,4.3627,0.0180,4.4383
21-Jun-2004,17:03:41,1270.0,16.3,4.3612,0.0150,4.5218
21-Jun-2004,17:03:42,1270.7,15.9,4.3605,0.0180,4.5218
21-Jun-2004,17:03:43,1271.3,15.5,4.3597,0.0150,4.5218
21-Jun-2004,17:03:44,1271.9,15.1,4.3586,0.0150,4.4387
21-Jun-2004,17:03:45,1271.9,14.7,4.3582,0.0150,4.5221
21-Jun-2004,17:03:46,1272.5,14.3,4.3570,0.0150,4.4388
21-Jun-2004,17:03:47,1273.7,13.9,4.3558,0.0120,4.4389
21-Jun-2004,17:03:48,1273.1,13.5,4.3551,0.0180,4.6057
21-Jun-2004,17:03:49,1273.7,13.1,4.3552,0.0210,4.5223
21-Jun-2004,17:03:50,1273.7,12.7,4.3563,0.0240,4.4388
21-Jun-2004,17:03:51,1273.7,12.3,4.3571,0.0450,4.5221
21-Jun-2004,17:03:52,1274.9,12.0,4.3563,0.0430,4.4387
21-Jun-2004,17:03:53,1275.5,11.6,4.3542,0.0270,4.5223
21-Jun-2004,17:03:54,1275.5,11.2,4.3542,0.0180,4.5223
21-Jun-2004,17:03:55,1275.5,10.8,4.3553,0.0180,4.5221
21-Jun-2004,17:03:56,1276.1,10.5,4.3561,0.0180,4.5220
21-Jun-2004,17:03:57,1276.7,10.2,4.3545,0.0120,4.5221
21-Jun-2004,17:03:58,1276.7,9.8,4.3540,0.0120,4.5222
21-Jun-2004,17:03:59,1277.4,9.4,4.3537,0.0150,4.4389
21-Jun-2004,17:04:00,1278.0,9.0,4.3537,0.0150,4.5222
21-Jun-2004,17:04:01,1278.0,8.6,4.3534,0.0180,4.4389
21-Jun-2004,17:04:02,1278.6,8.3,4.3535,0.0180,4.6055
21-Jun-2004,17:04:03,1278.6,8.1,4.3554,0.0210,4.5219
21-Jun-2004,17:04:04,1278.6,8.1,4.3566,0.0270,4.5217
21-Jun-2004,17:04:05,1277.4,8.1,4.3562,0.0150,4.4386
21-Jun-2004,17:04:06,1278.0,8.2,4.3556,0.0180,4.5219
21-Jun-2004,17:04:07,1278.6,8.1,4.3523,0.0210,4.5223
21-Jun-2004,17:04:08,1278.6,7.7,4.3493,0.0120,4.5227
21-Jun-2004,17:04:09,1279.8,7.2,4.3492,0.0150,4.5226
21-Jun-2004,17:04:10,1279.8,6.9,4.3500,0.0180,4.5225
21-Jun-2004,17:04:11,1279.8,6.6,4.3497,0.0180,4.5225
21-Jun-2004,17:04:12,1280.4,6.2,4.3452,0.0210,4.5231
21-Jun-2004,17:04:13,1281.0,5.8,4.3457,0.0150,4.5230
21-Jun-2004,17:04:14,1281.0,5.4,4.3456,0.0180,4.5230
21-Jun-2004,17:04:15,1281.6,5.1,4.3460,0.0240,4.4396
21-Jun-2004,17:04:16,1281.6,4.9,4.3459,0.0180,4.4396
21-Jun-2004,17:04:17,1282.2,4.6,4.3445,0.0150,4.4398
21-Jun-2004,17:04:18,1282.2,4.2,4.3433,0.0210,4.4399
21-Jun-2004,17:04:19,1282.2,3.8,4.3442,0.0150,4.6065
21-Jun-2004,17:04:20,1283.4,3.7,4.3461,0.0120,4.5228